Besuchen Sie unsere anderen Wetter Stationen:

Template documentation
and downloads

And another site


Select another period ( hide this area )

Einheiten Zeitraum Custom range Directly to
metrisch Englisch Beide
Tägliche Wöchentliche Monatliche Jährlich
use both date-selectors for a custom range
previous Tag
With this date

WeatherUnderground graphs for this period ( click here ) Loading the graph can take up to a minute!


Tägliche Zusammenfassung für Montag 14 Juni 2021
Zeit Temp. ( °C ) Dew pt. ( °C ) Wind ( km/h ) von Windböen ( km/h ) Luftdruck ( hPa ) Humid.( % ) Rainrate ( cm ) Solar ( W/m2 )
Hoch14,4 10,5 10,0 NW ( 167/570 ) 10,0 1025,1 87 - 397
Durchchnittswerte11,5 8,3 5,7 NW #34/100 5,2 1024,3 81 - 168 #37/100
Wenig9,6 7,3 2,0   2,0 1023,5 76 -  
Tägliche Tabular details for Montag 14 Juni 2021
Zeit Temp. ( °C ) Dew pt. ( °C ) Wind ( km/h ) von Windböen ( km/h ) Luftdruck ( hPa ) Humid.( % ) Rainrate ( cm ) Solar ( W/m2 )
00:04 11,7 8,3 6,0 Westen 8,0 1025,1 80 - -
00:09 11,9 8,2 4,0 Westen 5,0 1025,1 79 - -
00:14 12,0 8,2 7,0 Westen 6,0 1025,1 78 - -
00:19 12,0 8,2 10,0 Westen 8,0 1025,0 79 - -
00:24 11,4 8,0 10,0 Westen 10,0 1025,1 81 - -
00:29 11,1 7,9 10,0 Westen 10,0 1025,1 81 - -
00:34 11,3 8,0 10,0 Westen 10,0 1025,0 81 - -
00:39 11,3 8,0 9,0 Westen 10,0 1025,0 81 - -
00:44 11,3 8,1 10,0 Westen 8,0 1025,0 81 - -
00:49 11,3 8,1 9,0 Westen 10,0 1025,0 81 - -
00:54 11,3 8,1 10,0 Westen 8,0 1025,0 81 - -
00:59 11,4 8,1 9,0 Westen 10,0 1024,9 81 - -
01:04 11,3 8,1 8,0 Westen 8,0 1024,8 81 - -
01:09 11,3 8,1 9,0 WNW 10,0 1024,8 81 - -
01:14 11,2 8,1 6,0 WNW 10,0 1024,9 81 - -
01:19 11,2 8,1 6,0 WNW 5,0 1024,9 81 - -
01:24 11,2 8,2 7,0 WNW 6,0 1024,9 82 - -
01:29 11,6 8,2 7,0 WNW 8,0 1024,9 82 - -
01:34 11,6 8,2 6,0 WNW 8,0 1024,9 80 - -
01:39 11,3 8,1 6,0 WNW 5,0 1024,9 81 - -
01:44 11,2 8,0 6,0 WNW 5,0 1024,9 81 - -
01:49 11,1 8,1 6,0 WNW 5,0 1024,8 82 - -
01:54 11,3 8,1 6,0 WNW 5,0 1024,9 82 - -
01:59 11,3 8,0 4,0 WNW 5,0 1024,8 80 - -
02:04 11,6 8,1 4,0 WNW 3,0 1024,8 80 - -
02:09 12,1 8,2 4,0 WNW 3,0 1024,9 79 - -
02:14 12,3 8,3 4,0 WNW 3,0 1024,8 77 - -
02:19 12,4 8,3 4,0 WNW 3,0 1024,8 78 - -
02:24 11,8 8,1 4,0 WNW 3,0 1024,7 79 - -
02:29 11,8 8,0 6,0 WNW 4,0 1024,7 79 - -
02:34 11,8 8,1 7,0 WNW 5,0 1024,7 78 - -
02:39 11,8 8,1 4,0 WNW 8,0 1024,7 78 - -
02:44 12,3 8,2 7,0 WNW 4,0 1024,7 78 - -
02:49 12,4 8,3 7,0 WNW 8,0 1024,6 76 - -
02:54 12,4 8,3 6,0 WNW 8,0 1024,6 76 - -
02:59 12,2 8,3 6,0 WNW 5,0 1024,6 77 - -
03:04 11,9 8,1 4,0 WNW 5,0 1024,5 78 - -
03:09 11,8 8,1 7,0 NW 4,0 1024,6 78 - -
03:14 11,8 8,1 6,0 NW 8,0 1024,7 78 - -
03:19 11,8 8,0 4,0 NW 5,0 1024,6 78 - -
03:24 11,7 8,1 6,0 NW 3,0 1024,6 79 - -
03:29 11,4 8,0 4,0 NW 5,0 1024,6 81 - -
03:34 10,9 7,9 4,0 NW 3,0 1024,5 82 - -
03:39 11,2 8,1 7,0 NW 5,0 1024,5 82 - -
03:44 11,6 8,2 6,0 NW 8,0 1024,5 81 - -
03:49 11,4 7,9 6,0 NW 4,0 1024,4 79 - -
03:54 11,4 8,1 4,0 NW 5,0 1024,4 80 - -
03:59 11,3 7,9 4,0 NW 3,0 1024,4 80 - -
04:04 11,2 7,8 4,0 NW 3,0 1024,3 82 - -
04:09 10,8 7,9 4,0 NW 3,0 1024,3 82 - -
04:14 10,8 7,9 4,0 NW 3,0 1024,3 82 - -
04:19 10,7 7,8 4,0 NW 2,0 1024,3 83 - -
04:24 10,8 7,8 3,0 NW 3,0 1024,3 82 - -
04:29 10,7 7,8 4,0 NW 3,0 1024,4 82 - -
04:34 10,6 7,7 4,0 NW 3,0 1024,4 83 - -
04:39 10,4 7,7 6,0 NW 4,0 1024,3 83 - -
04:44 10,2 7,4 6,0 NW 5,0 1024,3 84 - -
04:49 9,9 7,4 6,0 NW 5,0 1024,3 85 - -
04:54 9,9 7,6 7,0 NW 6,0 1024,3 85 - -
04:59 9,9 7,4 6,0 NW 8,0 1024,3 86 - -
05:04 9,6 7,3 6,0 NW 5,0 1024,2 87 - -
05:09 9,7 7,5 6,0 NW 5,0 1024,2 87 - -
05:14 9,8 7,6 4,0 NW 5,0 1024,2 86 - -
05:19 10,2 7,9 4,0 NW 3,0 1024,2 86 - 5
05:24 10,3 7,8 4,0 NW 3,0 1024,2 85 - 7
05:29 10,2 7,6 5,0 NW 4,0 1024,1 84 - 9
05:34 10,2 7,6 6,0 NW 5,0 1024,0 84 - 12
05:39 10,2 7,8 6,0 NW 5,0 1024,1 85 - 16
05:44 10,3 7,8 2,0 NW 3,0 1024,1 85 - 21
05:49 10,6 8,0 2,0 NW 2,0 1024,0 84 - 28
05:54 10,7 8,1 6,0 NW 3,0 1024,0 84 - 35
05:59 10,9 8,2 6,0 WSW 5,0 1024,0 85 - 39
06:04 11,3 8,2 6,0 SW 5,0 1023,9 82 - 46
06:09 11,4 8,3 4,0 SW 5,0 1024,0 81 - 56
06:14 11,4 8,3 4,0 SW 3,0 1023,9 81 - 65
06:19 11,4 8,3 4,0 SW 3,0 1023,8 81 - 76
06:24 11,4 8,2 4,0 SW 3,0 1023,7 81 - 88
06:29 11,3 8,3 4,0 SW 3,0 1023,8 82 - 100
06:34 11,3 8,6 4,0 SW 3,0 1023,8 83 - 113
06:39 11,3 8,6 4,0 SW 3,0 1023,7 83 - 125
06:44 11,4 8,4 4,0 SW 3,0 1023,7 82 - 137
06:49 11,6 8,6 4,0 SW 3,0 1023,7 82 - 151
06:54 11,8 8,7 4,0 SW 3,0 1023,7 82 - 165
06:59 11,9 8,8 6,0 SW 3,0 1023,7 82 - 181
07:04 12,1 8,8 6,0 SSW 5,0 1023,8 81 - 195
07:09 12,0 8,8 3,0 SSW 3,0 1023,8 81 - 209
07:14 12,1 8,8 4,0 SSW 4,0 1023,7 81 - 225
07:19 12,2 8,9 4,0 SSW 3,0 1023,6 81 - 237
07:24 12,6 9,4 4,0 SSW 3,0 1023,7 82 - 250
07:29 12,7 9,4 6,0 Süden 3,0 1023,7 81 - 264
07:34 12,8 9,6 8,0 Süden 5,0 1023,7 81 - 276
07:39 13,0 10,0 9,0 SSO 10,0 1023,6 82 - 290
07:44 13,1 9,6 6,0 SSO 10,0 1023,7 80 - 304
07:49 13,1 9,3 6,0 SSO 5,0 1023,6 78 - 316
07:54 13,3 9,7 5,0 SSO 5,0 1023,7 79 - 329
07:59 13,4 9,7 6,0 SSO 5,0 1023,6 79 - 343
08:04 13,8 9,8 6,0 SSO 5,0 1023,6 78 - 357
08:09 13,9 10,2 7,0 SO 6,0 1023,6 78 - 369
08:14 14,3 10,5 10,0 OSO 8,0 1023,5 78 - 385
08:19 14,4 10,4 7,0 SO 10,0 1023,5 77 - 397
Tägliche Zusammenfassung für Montag 14 Juni 2021
Zeit Temp. ( °C ) Dew pt. ( °C ) Wind ( km/h ) von Windböen ( km/h ) Luftdruck ( hPa ) Humid.( % ) Rainrate ( cm ) Solar ( W/m2 )
Hoch14,4 10,5 10,0 NW ( 167/570 ) 10,0 1025,1 87 - 397
Durchchnittswerte11,5 8,3 5,7 NW #34/100 5,2 1024,3 81 - 168 #37/100
Wenig9,6 7,3 2,0   2,0 1023,5 76 -  
Tägliche Tabular details for Montag 14 Juni 2021
Zeit Temp. ( °C ) Dew pt. ( °C ) Wind ( km/h ) von Windböen ( km/h ) Luftdruck ( hPa ) Humid.( % ) Rainrate ( cm ) Solar ( W/m2 )
00:04 11,7 8,3 6,0 Westen 8,0 1025,1 80 - -
00:09 11,9 8,2 4,0 Westen 5,0 1025,1 79 - -
00:14 12,0 8,2 7,0 Westen 6,0 1025,1 78 - -
00:19 12,0 8,2 10,0 Westen 8,0 1025,0 79 - -
00:24 11,4 8,0 10,0 Westen 10,0 1025,1 81 - -
00:29 11,1 7,9 10,0 Westen 10,0 1025,1 81 - -
00:34 11,3 8,0 10,0 Westen 10,0 1025,0 81 - -
00:39 11,3 8,0 9,0 Westen 10,0 1025,0 81 - -
00:44 11,3 8,1 10,0 Westen 8,0 1025,0 81 - -
00:49 11,3 8,1 9,0 Westen 10,0 1025,0 81 - -
00:54 11,3 8,1 10,0 Westen 8,0 1025,0 81 - -
00:59 11,4 8,1 9,0 Westen 10,0 1024,9 81 - -
01:04 11,3 8,1 8,0 Westen 8,0 1024,8 81 - -
01:09 11,3 8,1 9,0 WNW 10,0 1024,8 81 - -
01:14 11,2 8,1 6,0 WNW 10,0 1024,9 81 - -
01:19 11,2 8,1 6,0 WNW 5,0 1024,9 81 - -
01:24 11,2 8,2 7,0 WNW 6,0 1024,9 82 - -
01:29 11,6 8,2 7,0 WNW 8,0 1024,9 82 - -
01:34 11,6 8,2 6,0 WNW 8,0 1024,9 80 - -
01:39 11,3 8,1 6,0 WNW 5,0 1024,9 81 - -
01:44 11,2 8,0 6,0 WNW 5,0 1024,9 81 - -
01:49 11,1 8,1 6,0 WNW 5,0 1024,8 82 - -
01:54 11,3 8,1 6,0 WNW 5,0 1024,9 82 - -
01:59 11,3 8,0 4,0 WNW 5,0 1024,8 80 - -
02:04 11,6 8,1 4,0 WNW 3,0 1024,8 80 - -
02:09 12,1 8,2 4,0 WNW 3,0 1024,9 79 - -
02:14 12,3 8,3 4,0 WNW 3,0 1024,8 77 - -
02:19 12,4 8,3 4,0 WNW 3,0 1024,8 78 - -
02:24 11,8 8,1 4,0 WNW 3,0 1024,7 79 - -
02:29 11,8 8,0 6,0 WNW 4,0 1024,7 79 - -
02:34 11,8 8,1 7,0 WNW 5,0 1024,7 78 - -
02:39 11,8 8,1 4,0 WNW 8,0 1024,7 78 - -
02:44 12,3 8,2 7,0 WNW 4,0 1024,7 78 - -
02:49 12,4 8,3 7,0 WNW 8,0 1024,6 76 - -
02:54 12,4 8,3 6,0 WNW 8,0 1024,6 76 - -
02:59 12,2 8,3 6,0 WNW 5,0 1024,6 77 - -
03:04 11,9 8,1 4,0 WNW 5,0 1024,5 78 - -
03:09 11,8 8,1 7,0 NW 4,0 1024,6 78 - -
03:14 11,8 8,1 6,0 NW 8,0 1024,7 78 - -
03:19 11,8 8,0 4,0 NW 5,0 1024,6 78 - -
03:24 11,7 8,1 6,0 NW 3,0 1024,6 79 - -
03:29 11,4 8,0 4,0 NW 5,0 1024,6 81 - -
03:34 10,9 7,9 4,0 NW 3,0 1024,5 82 - -
03:39 11,2 8,1 7,0 NW 5,0 1024,5 82 - -
03:44 11,6 8,2 6,0 NW 8,0 1024,5 81 - -
03:49 11,4 7,9 6,0 NW 4,0 1024,4 79 - -
03:54 11,4 8,1 4,0 NW 5,0 1024,4 80 - -
03:59 11,3 7,9 4,0 NW 3,0 1024,4 80 - -
04:04 11,2 7,8 4,0 NW 3,0 1024,3 82 - -
04:09 10,8 7,9 4,0 NW 3,0 1024,3 82 - -
04:14 10,8 7,9 4,0 NW 3,0 1024,3 82 - -
04:19 10,7 7,8 4,0 NW 2,0 1024,3 83 - -
04:24 10,8 7,8 3,0 NW 3,0 1024,3 82 - -
04:29 10,7 7,8 4,0 NW 3,0 1024,4 82 - -
04:34 10,6 7,7 4,0 NW 3,0 1024,4 83 - -
04:39 10,4 7,7 6,0 NW 4,0 1024,3 83 - -
04:44 10,2 7,4 6,0 NW 5,0 1024,3 84 - -
04:49 9,9 7,4 6,0 NW 5,0 1024,3 85 - -
04:54 9,9 7,6 7,0 NW 6,0 1024,3 85 - -
04:59 9,9 7,4 6,0 NW 8,0 1024,3 86 - -
05:04 9,6 7,3 6,0 NW 5,0 1024,2 87 - -
05:09 9,7 7,5 6,0 NW 5,0 1024,2 87 - -
05:14 9,8 7,6 4,0 NW 5,0 1024,2 86 - -
05:19 10,2 7,9 4,0 NW 3,0 1024,2 86 - 5
05:24 10,3 7,8 4,0 NW 3,0 1024,2 85 - 7
05:29 10,2 7,6 5,0 NW 4,0 1024,1 84 - 9
05:34 10,2 7,6 6,0 NW 5,0 1024,0 84 - 12
05:39 10,2 7,8 6,0 NW 5,0 1024,1 85 - 16
05:44 10,3 7,8 2,0 NW 3,0 1024,1 85 - 21
05:49 10,6 8,0 2,0 NW 2,0 1024,0 84 - 28
05:54 10,7 8,1 6,0 NW 3,0 1024,0 84 - 35
05:59 10,9 8,2 6,0 WSW 5,0 1024,0 85 - 39
06:04 11,3 8,2 6,0 SW 5,0 1023,9 82 - 46
06:09 11,4 8,3 4,0 SW 5,0 1024,0 81 - 56
06:14 11,4 8,3 4,0 SW 3,0 1023,9 81 - 65
06:19 11,4 8,3 4,0 SW 3,0 1023,8 81 - 76
06:24 11,4 8,2 4,0 SW 3,0 1023,7 81 - 88
06:29 11,3 8,3 4,0 SW 3,0 1023,8 82 - 100
06:34 11,3 8,6 4,0 SW 3,0 1023,8 83 - 113
06:39 11,3 8,6 4,0 SW 3,0 1023,7 83 - 125
06:44 11,4 8,4 4,0 SW 3,0 1023,7 82 - 137
06:49 11,6 8,6 4,0 SW 3,0 1023,7 82 - 151
06:54 11,8 8,7 4,0 SW 3,0 1023,7 82 - 165
06:59 11,9 8,8 6,0 SW 3,0 1023,7 82 - 181
07:04 12,1 8,8 6,0 SSW 5,0 1023,8 81 - 195
07:09 12,0 8,8 3,0 SSW 3,0 1023,8 81 - 209
07:14 12,1 8,8 4,0 SSW 4,0 1023,7 81 - 225
07:19 12,2 8,9 4,0 SSW 3,0 1023,6 81 - 237
07:24 12,6 9,4 4,0 SSW 3,0 1023,7 82 - 250
07:29 12,7 9,4 6,0 Süden 3,0 1023,7 81 - 264
07:34 12,8 9,6 8,0 Süden 5,0 1023,7 81 - 276
07:39 13,0 10,0 9,0 SSO 10,0 1023,6 82 - 290
07:44 13,1 9,6 6,0 SSO 10,0 1023,7 80 - 304
07:49 13,1 9,3 6,0 SSO 5,0 1023,6 78 - 316
07:54 13,3 9,7 5,0 SSO 5,0 1023,7 79 - 329
07:59 13,4 9,7 6,0 SSO 5,0 1023,6 79 - 343
08:04 13,8 9,8 6,0 SSO 5,0 1023,6 78 - 357
08:09 13,9 10,2 7,0 SO 6,0 1023,6 78 - 369
08:14 14,3 10,5 10,0 OSO 8,0 1023,5 78 - 385
08:19 14,4 10,4 7,0 SO 10,0 1023,5 77 - 397

Download your copy of this data-set  here

Our weather-data as stored at Weather Underground. Script entwickelt von Jim McMurry. Angepasst für das Template von Leuven-Template.eu

Sie finden unser Wetter-Infos auch auf:

netzwerkwettercom

European Weather Network

WeatherCloud

Weather Underground

AWEKAS

Citizen Weather Observer Program (CWOP)

HAMweather, WeatherForYou, PWS Weather

Von uns verwendete Ausrüstung:

Wetterstation
Davis VP2

Wetterprogramm
Weather Display

Davis VP2

Weather Display